Location: Allison's Woods
(35.8809°N, 80.8140°W)
Time: 09:37:00
(UTC-04:00)

Iridium 39 - Visible Passes

Search period start: 04 July 2015 00:00
Search period end: 14 July 2015 00:00
Orbit: 776 x 779 km, 86.4° (Epoch: 03 July)

Date Brightness Start Highest point End Pass type
(mag) Time Alt. Az. Time Alt. Az. Time Alt. Az.
04 Jul 8.6 02:38:29 10° E 02:39:52 11° E 02:41:36 10° ENE visible
04 Jul 6.0 04:17:43 33° SSW 04:20:03 68° W 04:25:16 10° N visible
05 Jul 6.3 03:44:34 36° SSE 03:46:34 63° E 03:51:43 10° N visible
05 Jul 7.9 05:25:31 10° W 05:27:52 12° WNW 05:29:54 10° NW visible
06 Jul 7.4 03:11:23 26° ESE 03:13:09 32° E 03:17:47 10° NNE visible
06 Jul 7.3 04:51:52 19° WSW 04:53:57 24° W 04:58:04 10° NNW visible
07 Jul 8.2 02:38:11 15° ESE 02:39:49 17° E 02:43:14 10° NE visible
07 Jul 6.4 04:18:41 36° SW 04:20:12 45° W 04:25:12 10° NNW visible
08 Jul 5.9 03:45:28 56° S 03:46:38 88° W 03:51:53 10° N visible
09 Jul 6.7 03:12:15 43° ESE 03:13:10 48° E 03:18:11 10° NNE visible
09 Jul 7.7 04:52:44 15° W 04:54:16 16° WNW 04:57:22 10° NW visible
10 Jul 7.6 02:39:02 24° E 02:39:47 25° E 02:44:03 10° NNE visible
10 Jul 6.9 04:19:31 29° W 04:20:25 31° W 04:24:58 10° NNW visible
11 Jul 8.4 02:05:47 13° E 02:06:29 13° E 02:09:00 10° NE visible
11 Jul 6.0 03:46:16 57° WSW 03:46:45 59° W 03:51:54 10° N visible
12 Jul 6.0 03:13:01 71° ESE 03:13:13 72° E 03:18:25 10° N visible
12 Jul 8.1 04:53:31 10° W 04:54:39 11° WNW 04:55:39 10° WNW visible
13 Jul 7.1 02:39:46 37° E 02:39:47 37° E 02:44:34 10° NNE visible
13 Jul 7.4 04:20:15 21° W 04:20:41 21° WNW 04:24:31 10° NNW visible
